Regional Weather Roundup
Issued by NWS

Home | Current Version | Previous Version | Text Only | Print | Product List | Glossary Off
Versions: 1 2 3 4 5 6 7 8 9 10 11 12 13 14 15 16 17 18 19 20 21 22 23 24 25 26 27

000
ASUS45 KSLC 241010
RWRUT

UTAH REGIONAL WEATHER ROUNDUP
NATIONAL WEATHER SERVICE SALT LAKE CITY UT
300 AM MST FRI NOV 24 2017

UTZ001>011-023>025-241100-

NORTHERN UTAH

CITY           SKY/WX    TMP DP  RH WIND       PRES   REMARKS
BRIGHAM CITY   PTCLDY    45  40  83 CALM      29.99S
HILL AFB       CLOUDY    53  38  58 W3        29.98F
LOGAN          PTCLDY    46  39  76 N10       29.96F
OGDEN          MOCLDY    50  40  68 CALM      29.97F
SALT LAKE CITY MOCLDY    50  45  83 N6        29.96F
TOOELE VALLEY  MOCLDY    41  39  93 CALM      29.98S FOG
WENDOVER       CLEAR     36  31  82 SW3       29.99F
HEBER CITY       N/A     41  34  75 CALM      30.03F
WEST JORDAN    CLOUDY    58  35  42 S16       29.98S

$$

UTZ011>015-024>027-241100-

CENTRAL/NORTHEAST UTAH

CITY           SKY/WX    TMP DP  RH WIND       PRES   REMARKS
PROVO AIRPORT  CLOUDY    50  39  66 W5        30.02F
MOAB/CANYONLAN MOCLDY    33  23  66 W3        30.07F
DELTA          CLOUDY    48  32  53 S7        30.03F
PRICE          CLOUDY    37  31  78 NE6       30.10F WCI  32
RICHFIELD      PTCLDY    36  34  93 CALM      30.11F
ROOSEVELT      CLOUDY    32  27  80 N3        30.08F
VERNAL         CLOUDY    32  27  81 NW3       30.05F

$$

UTZ013>016-019>022-027-241100-

SOUTHERN UTAH

CITY           SKY/WX    TMP DP  RH WIND       PRES   REMARKS
BRYCE CANYON   PTCLDY    24  18  77 SW6       30.22S WCI  17
CEDAR CITY     PTCLDY    39  22  50 CALM      30.12R
MILFORD        MOCLDY    52  28  39 SW16      30.05F
ST GEORGE      PTSUNNY   46  31  55 NW6       30.07S
HANKSVILLE     MOCLDY    32  21  64 CALM      30.12F
KANAB          CLEAR     34  25  69 NE6       30.16F WCI  29
BLANDING         N/A     40  28  62 CALM      30.23S

$$

REGIONAL REPORTS     COLORADO/ARIZONA

CITY           SKY/WX    TMP DP  RH WIND       PRES   REMARKS
CRAIG, CO      CLOUDY    32  29  88 CALM      30.07F
GRAND JUNCTION CLOUDY    41  33  73 E7        30.10S
RIFLE, CO      CLOUDY    35  32  88 CALM      30.14S
MONTROSE, CO   CLOUDY    35  27  72 E5        30.15F WCI  31
CORTEZ, CO     CLOUDY    27  22  81 CALM      30.17F
COLORADO CITY    N/A     32  27  80 E5        30.14F WCI  27
PAGE, AZ       PTCLDY    44  33  65 NW3       30.10F
GRAND CANYON   MOCLDY    26  13  57 CALM      30.22F
KINGMAN, AZ    CLEAR     46  27  47 CALM      30.05F
FLAGSTAFF, AZ  PTCLDY    30  23  75 CALM      30.24F

$$

REGIONAL REPORTS    NEVADA/IDAHO/WYOMING

CITY           SKY/WX    TMP DP  RH WIND       PRES   REMARKS
LAS VEGAS, NV  PTCLDY    58  36  43 W3        29.98S
ELY, NY        MOCLDY    50  27  40 SW5       30.12F
ELKO, NV       PTCLDY    37  31  78 CALM      30.05S
POCATELLO, ID  PTCLDY    49  40  71 SW13      29.94F
BURLEY, ID     CLOUDY    50  37  61 W6        29.95R
FORT BRIDGER,    N/A     47  31  55 W15       30.04F
EVANSTON, WY   CLEAR     44  31  60 SW7       30.03F
ROCK SPRINGS,  CLEAR     42  31  64 SW7       30.01F
KEMMERER, WY   CLEAR     39  32  75 SW12      30.03R WCI  32

$$




USA.gov is the U.S. government's official web portal to all federal, state and local government web resources and services.